TimeEST,TemperatureF,Dew PointF,Humidity,Sea Level PressureIn,VisibilityMPH,Wind Direction,Wind SpeedMPH,Gust SpeedMPH,PrecipitationIn,Events,Conditions,WindDirDegrees,DateUTC
12:53 AM,48.9,42.1,77,30.23,10.0,NNW,9.2,-,N/A,,Clear,340,2013-01-07 05:53:00
1:53 AM,46.9,39.0,74,30.24,10.0,North,6.9,-,N/A,,Clear,350,2013-01-07 06:53:00
2:53 AM,45.0,37.0,74,30.25,10.0,North,3.5,-,N/A,,Clear,360,2013-01-07 07:53:00
3:53 AM,42.1,36.0,79,30.25,10.0,Calm,Calm,-,N/A,,Clear,0,2013-01-07 08:53:00
4:53 AM,41.0,36.0,82,30.25,10.0,North,4.6,-,N/A,,Clear,350,2013-01-07 09:53:00
5:53 AM,39.9,36.0,86,30.25,10.0,North,4.6,-,N/A,,Clear,360,2013-01-07 10:53:00
6:53 AM,39.0,35.1,86,30.27,10.0,North,3.5,-,N/A,,Clear,360,2013-01-07 11:53:00
7:53 AM,39.0,35.1,86,30.30,10.0,Calm,Calm,-,N/A,,Clear,0,2013-01-07 12:53:00
8:53 AM,44.1,36.0,73,30.33,10.0,NNE,3.5,-,N/A,,Clear,30,2013-01-07 13:53:00
9:53 AM,48.0,36.0,63,30.34,10.0,NE,9.2,-,N/A,,Clear,50,2013-01-07 14:53:00
10:53 AM,52.0,35.1,53,30.34,10.0,ENE,10.4,20.7,N/A,,Clear,70,2013-01-07 15:53:00
11:53 AM,55.0,36.0,49,30.32,10.0,Variable,5.8,16.1,N/A,,Clear,0,2013-01-07 16:53:00
12:53 PM,59.0,37.0,44,30.29,10.0,ENE,10.4,-,N/A,,Clear,60,2013-01-07 17:53:00
1:53 PM,59.0,37.0,44,30.29,10.0,ENE,9.2,-,N/A,,Clear,70,2013-01-07 18:53:00
2:53 PM,57.0,37.9,49,30.29,10.0,ESE,10.4,-,N/A,,Clear,110,2013-01-07 19:53:00
3:53 PM,57.0,37.9,49,30.30,10.0,ENE,8.1,-,N/A,,Clear,70,2013-01-07 20:53:00
4:53 PM,55.9,37.9,51,30.30,10.0,ENE,6.9,-,N/A,,Clear,70,2013-01-07 21:53:00
6:53 PM,51.1,37.9,61,30.32,10.0,ENE,4.6,-,N/A,,Clear,60,2013-01-07 23:53:00
7:53 PM,51.1,37.0,59,30.32,10.0,ENE,6.9,-,N/A,,Overcast,60,2013-01-08 00:53:00
8:53 PM,51.1,36.0,56,30.31,10.0,ENE,6.9,-,N/A,,Overcast,60,2013-01-08 01:53:00
9:53 PM,50.0,35.1,57,30.32,10.0,ENE,4.6,-,N/A,,Mostly Cloudy,60,2013-01-08 02:53:00
10:53 PM,48.9,36.0,61,30.30,10.0,Calm,Calm,-,N/A,,Overcast,0,2013-01-08 03:53:00
11:53 PM,48.0,36.0,63,30.30,10.0,Calm,Calm,-,N/A,,Partly Cloudy,0,2013-01-08 04:53:00